• In Denmark
  • List of Countries
  • For 7 days
  • Water Temperature
  • Satellite Maps
  • Weather Map
  • Weather Widgets
  • user-avatar
    Login

    Hourly Weather Batan

    Today, 23 October, Tuesday

    Time Temperature Precipitation Wind Pressure Humidity
    00:00 +10°C° 0 mm 2 mps 698 mmHg 45%
    01:00 +10°C° 0 mm 2 mps 698 mmHg 47%
    02:00 +9°C° 0 mm 2 mps 698 mmHg 48%
    03:00 +9°C° 0 mm 2 mps 699 mmHg 47%
    04:00 +8°C° 0 mm 2 mps 699 mmHg 48%
    05:00 +8°C° 0 mm 2 mps 699 mmHg 49%
    06:00 +10°C° 0 mm 1 mps 700 mmHg 48%
    07:00 +11°C° 0 mm 1 mps 700 mmHg 47%
    08:00 +12°C° 0 mm 1 mps 701 mmHg 46%
    09:00 +13°C° 0.1 mm 1 mps 701 mmHg 44%
    10:00 +14°C° 0.1 mm 2 mps 701 mmHg 43%
    11:00 +15°C° 0.1 mm 2 mps 701 mmHg 41%
    12:00 +15°C° 0.1 mm 2 mps 701 mmHg 41%
    13:00 +15°C° 0.1 mm 2 mps 701 mmHg 41%
    14:00 +16°C° 0.1 mm 2 mps 701 mmHg 41%
    15:00 +14°C° 0 mm 2 mps 701 mmHg 45%
    16:00 +13°C° 0 mm 2 mps 701 mmHg 49%
    17:00 +11°C° 0 mm 1 mps 701 mmHg 53%
    18:00 +9°C° 0 mm 2 mps 701 mmHg 53%
    19:00 +9°C° 0 mm 2 mps 701 mmHg 53%
    20:00 +8°C° 0 mm 2 mps 702 mmHg 54%
    21:00 +8°C° 0 mm 2 mps 702 mmHg 53%
    22:00 +8°C° 0 mm 2 mps 702 mmHg 53%
    23:00 +8°C° 0 mm 2 mps 702 mmHg 52%

    Tomorrow, 24 October, Wednesday

    Time Temperature Precipitation Wind Pressure Humidity
    00:00 +7°C° 0 mm 2 mps 702 mmHg 52%
    01:00 +7°C° 0 mm 2 mps 702 mmHg 53%
    02:00 +7°C° 0 mm 2 mps 702 mmHg 53%
    03:00 +7°C° 0 mm 2 mps 702 mmHg 53%
    04:00 +7°C° 0 mm 2 mps 702 mmHg 53%
    05:00 +7°C° 0 mm 2 mps 702 mmHg 53%
    06:00 +8°C° 0 mm 2 mps 702 mmHg 52%
    07:00 +9°C° 0 mm 2 mps 702 mmHg 50%
    08:00 +10°C° 0 mm 2 mps 702 mmHg 49%
    09:00 +12°C° 0 mm 3 mps 701 mmHg 45%
    10:00 +13°C° 0 mm 3 mps 701 mmHg 41%
    11:00 +16°C° 0 mm 3 mps 701 mmHg 38%
    12:00 +16°C° 0 mm 3 mps 700 mmHg 38%
    13:00 +16°C° 0 mm 3 mps 700 mmHg 38%
    14:00 +17°C° 0 mm 4 mps 700 mmHg 38%
    15:00 +14°C° 0 mm 4 mps 700 mmHg 41%
    16:00 +13°C° 0 mm 4 mps 700 mmHg 45%
    17:00 +11°C° 0 mm 4 mps 699 mmHg 49%
    18:00 +11°C° 0 mm 4 mps 700 mmHg 47%
    19:00 +10°C° 0 mm 4 mps 700 mmHg 45%
    20:00 +10°C° 0 mm 4 mps 700 mmHg 43%
    21:00 +10°C° 0 mm 4 mps 700 mmHg 42%
    22:00 +8°C° 0 mm 4 mps 700 mmHg 42%
    23:00 +9°C° 0 mm 3 mps 700 mmHg 41%

    Day after tomorrow, 25 October, Thursday

    Time Temperature Precipitation Wind Pressure Humidity
    00:00 +9°C° 0 mm 3 mps 700 mmHg 41%
    01:00 +9°C° 0 mm 3 mps 700 mmHg 41%
    02:00 +9°C° 0 mm 3 mps 699 mmHg 41%
    03:00 +9°C° 0 mm 3 mps 699 mmHg 42%
    04:00 +9°C° 0 mm 3 mps 700 mmHg 42%
    05:00 +8°C° 0 mm 3 mps 700 mmHg 42%
    06:00 +9°C° 0 mm 3 mps 700 mmHg 41%
    07:00 +10°C° 0 mm 3 mps 700 mmHg 41%
    08:00 +12°C° 0 mm 3 mps 700 mmHg 41%
    09:00 +14°C° 0 mm 2 mps 700 mmHg 39%
    10:00 +16°C° 0 mm 2 mps 700 mmHg 38%
    11:00 +17°C° 0 mm 2 mps 700 mmHg 36%
    12:00 +18°C° 0 mm 2 mps 699 mmHg 36%
    13:00 +18°C° 0 mm 2 mps 699 mmHg 35%
    14:00 +19°C° 0 mm 2 mps 699 mmHg 35%
    15:00 +17°C° 0 mm 2 mps 699 mmHg 37%
    16:00 +16°C° 0 mm 2 mps 699 mmHg 38%
    17:00 +14°C° 0 mm 2 mps 699 mmHg 40%
    18:00 +14°C° 0 mm 2 mps 700 mmHg 40%
    19:00 +13°C° 0 mm 2 mps 700 mmHg 41%
    20:00 +12°C° 0 mm 2 mps 700 mmHg 41%
    21:00 +12°C° 0 mm 2 mps 700 mmHg 42%
    22:00 +12°C° 0 mm 2 mps 700 mmHg 43%
    23:00 +12°C° 0 mm 2 mps 700 mmHg 43%

    26 October, Friday

    Time Temperature Precipitation Wind Pressure Humidity
    00:00 +12°C° 0 mm 2 mps 700 mmHg 44%
    01:00 +12°C° 0 mm 2 mps 700 mmHg 45%
    02:00 +12°C° 0 mm 2 mps 700 mmHg 45%
    03:00 +12°C° 0 mm 2 mps 700 mmHg 46%
    04:00 +10°C° 0 mm 2 mps 700 mmHg 47%
    05:00 +10°C° 0 mm 2 mps 700 mmHg 48%
    06:00 +12°C° 0 mm 2 mps 700 mmHg 47%
    07:00 +13°C° 0 mm 2 mps 701 mmHg 46%
    08:00 +14°C° 0 mm 2 mps 701 mmHg 45%
    09:00 +16°C° 0 mm 2 mps 701 mmHg 42%
    10:00 +17°C° 0 mm 3 mps 700 mmHg 40%
    11:00 +19°C° 0 mm 3 mps 700 mmHg 37%
    12:00 +19°C° 0 mm 3 mps 700 mmHg 36%
    13:00 +20°C° 0 mm 3 mps 700 mmHg 35%
    14:00 +20°C° 0 mm 3 mps 700 mmHg 34%
    15:00 +18°C° 0 mm 3 mps 700 mmHg 36%
    16:00 +17°C° 0 mm 3 mps 699 mmHg 38%
    17:00 +14°C° 0 mm 3 mps 699 mmHg 39%
    18:00 +14°C° 0 mm 3 mps 699 mmHg 40%
    19:00 +13°C° 0 mm 3 mps 700 mmHg 40%
    20:00 +12°C° 0 mm 3 mps 700 mmHg 41%
    21:00 +12°C° 0 mm 3 mps 700 mmHg 41%
    22:00 +12°C° 0 mm 3 mps 700 mmHg 41%
    23:00 +11°C° 0 mm 3 mps 699 mmHg 40%

    27 October, Saturday

    Time Temperature Precipitation Wind Pressure Humidity
    00:00 +11°C° 0 mm 3 mps 699 mmHg 40%
    01:00 +11°C° 0 mm 3 mps 699 mmHg 40%
    02:00 +11°C° 0 mm 3 mps 699 mmHg 40%
    03:00 +11°C° 0 mm 3 mps 699 mmHg 40%
    04:00 +11°C° 0 mm 3 mps 700 mmHg 40%
    05:00 +11°C° 0 mm 3 mps 700 mmHg 39%
    06:00 +12°C° 0 mm 3 mps 700 mmHg 39%
    07:00 +13°C° 0 mm 3 mps 700 mmHg 39%
    08:00 +14°C° 0 mm 3 mps 700 mmHg 38%
    09:00 +17°C° 0 mm 3 mps 700 mmHg 37%
    10:00 +18°C° 0 mm 3 mps 700 mmHg 36%
    11:00 +20°C° 0 mm 4 mps 700 mmHg 34%
    12:00 +21°C° 0 mm 4 mps 700 mmHg 34%
    13:00 +21°C° 0 mm 4 mps 699 mmHg 33%
    14:00 +21°C° 0 mm 4 mps 699 mmHg 33%
    15:00 +20°C° 0 mm 4 mps 699 mmHg 35%
    16:00 +18°C° 0 mm 4 mps 699 mmHg 36%
    17:00 +17°C° 0 mm 4 mps 699 mmHg 38%
    18:00 +15°C° 0 mm 4 mps 699 mmHg 38%
    19:00 +15°C° 0 mm 4 mps 699 mmHg 39%
    20:00 +15°C° 0 mm 4 mps 699 mmHg 39%
    21:00 +15°C° 0 mm 4 mps 699 mmHg 39%
    22:00 +16°C° 0 mm 3 mps 699 mmHg 40%
    23:00 +16°C° 0 mm 3 mps 699 mmHg 41%

    28 October, Sunday

    Time Temperature Precipitation Wind Pressure Humidity
    00:00 +16°C° 0.1 mm 3 mps 699 mmHg 42%
    01:00 +16°C° 0.1 mm 3 mps 699 mmHg 44%
    02:00 +16°C° 0.1 mm 3 mps 699 mmHg 46%
    03:00 +16°C° 0 mm 2 mps 700 mmHg 46%
    04:00 +16°C° 0 mm 2 mps 700 mmHg 47%
    05:00 +16°C° 0 mm 2 mps 700 mmHg 48%
    06:00 +16°C° 0 mm 2 mps 700 mmHg 48%
    07:00 +16°C° 0 mm 2 mps 700 mmHg 48%
    08:00 +17°C° 0 mm 2 mps 701 mmHg 48%
    09:00 +17°C° 0.2 mm 2 mps 701 mmHg 50%
    10:00 +17°C° 0.2 mm 2 mps 701 mmHg 52%
    11:00 +17°C° 0.2 mm 3 mps 701 mmHg 54%
    12:00 +16°C° 0.8 mm 3 mps 701 mmHg 64%
    13:00 +14°C° 0.8 mm 4 mps 702 mmHg 74%
    14:00 +13°C° 0.8 mm 5 mps 702 mmHg 83%
    15:00 +12°C° 2.2 mm 5 mps 703 mmHg 85%
    16:00 +11°C° 2.2 mm 4 mps 704 mmHg 86%
    17:00 +10°C° 2.2 mm 4 mps 705 mmHg 87%
    18:00 +10°C° 1.1 mm 4 mps 706 mmHg 86%
    19:00 +9°C° 1.1 mm 3 mps 706 mmHg 85%
    20:00 +9°C° 1.1 mm 3 mps 707 mmHg 85%
    21:00 +8°C° 0.7 mm 3 mps 708 mmHg 83%
    22:00 +8°C° 0.7 mm 3 mps 708 mmHg 81%
    23:00 +7°C° 0.7 mm 2 mps 708 mmHg 80%

    29 October, Monday

    Time Temperature Precipitation Wind Pressure Humidity
    00:00 +7°C° 0.2 mm 2 mps 709 mmHg 78%
    01:00 +7°C° 0.2 mm 2 mps 710 mmHg 76%
    02:00 +7°C° 0.2 mm 2 mps 710 mmHg 74%
    03:00 +7°C° 0 mm 2 mps 711 mmHg 74%
    04:00 +6°C° 0 mm 2 mps 711 mmHg 74%
    05:00 +6°C° 0 mm 2 mps 712 mmHg 73%
    06:00 +5°C° 0 mm 3 mps 712 mmHg 74%
    07:00 +5°C° 0 mm 3 mps 713 mmHg 74%
    08:00 +5°C° 0 mm 3 mps 713 mmHg 75%
    09:00 +7°C° 0 mm 3 mps 713 mmHg 70%
    10:00 +8°C° 0 mm 2 mps 713 mmHg 65%
    11:00 +9°C° 0 mm 2 mps 713 mmHg 61%
    12:00 +9°C° 0 mm 2 mps 712 mmHg 57%
    13:00 +10°C° 0 mm 2 mps 712 mmHg 52%
    14:00 +10°C° 0 mm 3 mps 712 mmHg 48%
    15:00 +9°C° 0 mm 3 mps 712 mmHg 50%
    16:00 +8°C° 0 mm 3 mps 712 mmHg 52%
    17:00 +7°C° 0 mm 3 mps 711 mmHg 55%
    18:00 +5°C° 0 mm 3 mps 712 mmHg 54%
    19:00 +5°C° 0 mm 3 mps 712 mmHg 53%
    20:00 +5°C° 0 mm 3 mps 712 mmHg 53%
    21:00 +5°C° 0 mm 3 mps 712 mmHg 52%
    22:00 +5°C° 0 mm 3 mps 711 mmHg 52%
    23:00 +5°C° 0 mm 3 mps 711 mmHg 52%
    Show more